{"data":{"norad_id":55773,"intl_designator":"2023-028AJ","name":"STARLINK-5833","alt_names":[],"object_type":"PAYLOAD","status":"ACTIVE","operator":null,"country":"US","launch_date":"2023-03-03","launch_site_code":"AFWTR","launch_vehicle":null,"mission":null,"orbit_class":"UNKNOWN","rcs_meters":null,"size_class":null,"mass_kg":null,"dimensions":null,"purposes":["comms"],"wikipedia_slug":null,"has_3d_model":false,"image_url":null,"decayed_at":null,"tle_current":{"epoch":"2026-09-20T13:54:07.721856Z","epoch_age_seconds":96238,"freshness":"FRESH","line1":"1 55773U 23028AJ  26263.57925604  .00000457  00000+0  46128-4 0  9999","line2":"2 55773  69.9982  93.1521 0003068 271.4533  88.6274 14.98320884195721","mean_motion":14.98320884,"eccentricity":0.0003068,"inclination_deg":69.9982,"raan_deg":93.1521,"arg_perigee_deg":271.4533,"mean_anomaly_deg":88.6274,"bstar":4.6128e-5,"rev_number":19572,"period_min":96.107583854514,"perigee_km":569.95175373754,"apogee_km":574.21640939319,"semimajor_km":6950.2210815654,"source":"CELESTRAK","updated_at":"2026-09-21T09:00:33.317691Z"}}}